Regional Weather Roundup
Issued by NWS Columbia, SC

Home | Current Version | Previous Version | Text Only | Print | Product List | Glossary On
Versions: 1 2 3 4 5 6 7 8 9 10 11 12 13 14 15 16 17 18 19 20 21 22 23 24 25 26 27 28 29 30 31 32 33 34 35 36 37 38 39 40 41 42 43 44 45 46 47
000
ASUS42 KCAE 040610
RWRCAE
REGIONAL WEATHER ROUNDUP
NATIONAL WEATHER SERVICE COLUMBIA SC
200 AM EDT MON MAY 04 2015

NOTE: "FAIR" INDICATES FEW OR NO CLOUDS BELOW 12,000 FEET WITH NO
SIGNIFICANT WEATHER AND/OR OBSTRUCTIONS TO VISIBILITY.

NOT ALL STATIONS ARE QUALITY CONTROLLED BY THE NATIONAL
WEATHER SERVICE. USE DATA WITH CAUTION...ESPECIALLY
DEWPOINT OBSERVATIONS.

SCZ001>056-GAZ040-063>065-077-040700-
...UPSTATE SOUTH CAROLINA...

CITY           SKY/WX    TMP DP  RH WIND       PRES   REMARKS
ANDERSON       CLEAR     57  53  86 CALM      30.21S
6HR MIN TEMP:  57; 6HR MAX TEMP:  72;

LIBERTY        CLEAR     53  52  98 CALM      30.21S
6HR MIN TEMP:  36; 6HR MAX TEMP:  83;

SPARTANBURG    PTCLDY    61  57  88 CALM      30.21S
CLEMSON        CLEAR     62  54  74 NW3       30.22S
6HR MIN TEMP:  61; 6HR MAX TEMP:  74;

GREENVILLE     MOCLDY    63  51  65 W3        30.22S
6HR MIN TEMP:  63; 6HR MAX TEMP:  74;

GREENWOOD      CLEAR     56  53  90 CALM      30.23R
6HR MIN TEMP:  56; 6HR MAX TEMP:  70;

GREER          MOCLDY    63  52  67 CALM      30.21R
6HR MIN TEMP:  62; 6HR MAX TEMP:  73;

ROCK HILL      CLEAR     61  50  67 S3        30.23S
6HR MIN TEMP:  56; 6HR MAX TEMP:  72;

LAURENS        CLEAR     59  55  88 S3        30.22R


...CENTRAL SOUTH CAROLINA...

CITY           SKY/WX    TMP DP  RH WIND       PRES   REMARKS
COLUMBIA APT   PTCLDY    63  53  70 E3        30.22S
6HR MIN TEMP:  63; 6HR MAX TEMP:  76;

COLUMBIA OWENS CLEAR     63  54  72 CALM      30.24R
6HR MIN TEMP:  63; 6HR MAX TEMP:  77;

DARLINGTON     CLEAR     61  55  82 S5        30.25S
6HR MIN TEMP:  61; 6HR MAX TEMP:  73;

FLORENCE       CLEAR     61  57  87 S3        30.24S
6HR MIN TEMP:  60; 6HR MAX TEMP:  73;

MCENTIRE ANGB  MOCLDY    61  55  81 SE3       30.23S
6HR MIN TEMP:  61; 6HR MAX TEMP:  74;

ORANGEBURG     CLEAR     59  53  80 CALM      30.24S
6HR MIN TEMP:  59; 6HR MAX TEMP:  75;

SUMTER SHAW    CLEAR     60  54  80 CALM      30.22S
6HR MIN TEMP:  60; 6HR MAX TEMP:  73;

NEWBERRY       CLEAR     61  52  72 S5        30.25R
AIKEN          FAIR      61  46  59 S5        30.25S
BARNWELL       FAIR      59  54  82 CALM      30.23S
MANNING        FAIR      57  54  88 CALM      30.24S
CAMDEN         FAIR      61  54  77 CALM      30.24S
LANCASTER      CLEAR     59  55  88 SE5       30.23S
WINNSBORO      CLEAR     61  52  72 SE7       30.23S


...EASTERN AND COASTAL SOUTH CAROLINA...

CITY           SKY/WX    TMP DP  RH WIND       PRES   REMARKS
MYRTLE BEACH   CLEAR     64  57  77 CALM      30.26F
6HR MIN TEMP:  64; 6HR MAX TEMP:  70;

N MYRTLE BCH   CLEAR     66  59  78 S6        30.24S
6HR MIN TEMP:  66; 6HR MAX TEMP:  69;

CONWAY         FAIR      54  54 100 CALM      30.25S
MARION         FAIR      61  59  94 CALM      30.24F
HARTSVILLE     FAIR      57  54  88 CALM      30.25S
FLORENCE       CLEAR     61  57  87 S3        30.24S
6HR MIN TEMP:  60; 6HR MAX TEMP:  73;

DARLINGTON     CLEAR     61  55  82 S5        30.25S
6HR MIN TEMP:  61; 6HR MAX TEMP:  73;

CHARLESTON APT PTCLDY    63  59  87 CALM      30.23F
6HR MIN TEMP:  63; 6HR MAX TEMP:  70;

MOUNT PLEASANT FAIR      59  57  94 MISG      30.24S
WALTERBORO     CLEAR     59  57  94 CALM      30.24S
BEAUFORT       CLEAR     61  58  90 CALM      30.23F
6HR MIN TEMP:  61; 6HR MAX TEMP:  73;



...EASTERN GEORGIA...

CITY           SKY/WX    TMP DP  RH WIND       PRES   REMARKS
AUGUSTA BUSH F CLEAR     56  53  90 CALM      30.22R
6HR MIN TEMP:  55; 6HR MAX TEMP:  71;

AUGUSTA DANIEL CLEAR     67  48  50 S5        30.23R
6HR MIN TEMP:  66; 6HR MAX TEMP:  77;

THOMSON        CLEAR     64  55  72 CALM      30.26S
6HR MIN TEMP:  59; 6HR MAX TEMP:  73;

WASHINGTON     FAIR      61  59  94 S5        30.21S
CLAXTON        FAIR      54  54 100 CALM      30.23S
SYLVANIA       CLEAR     57  53  88 CALM      30.23F
6HR MIN TEMP:  57; 6HR MAX TEMP:  73;

STATESBORO       N/A     55  55 100 CALM      30.22F
6HR MIN TEMP:  55; 6HR MAX TEMP:  73;

SAVANNAH       CLEAR     58  55  90 CALM      30.23S
6HR MIN TEMP:  58; 6HR MAX TEMP:  71;



...SOUTHERN NORTH CAROLINA...

CITY           SKY/WX    TMP DP  RH WIND       PRES   REMARKS
CHARLOTTE      PTCLDY    58  48  69 S6        30.23R
6HR MIN TEMP:  58; 6HR MAX TEMP:  71;

MONROE         CLEAR     61  51  70 VRB5      30.22S
6HR MIN TEMP:  59; 6HR MAX TEMP:  70;

WADESBORO      PTCLDY    58  52  80 SE6       30.23S
6HR MIN TEMP:  58; 6HR MAX TEMP:  70;

ROCKINGHAM     CLEAR     61  56  83 S5        30.24S
6HR MIN TEMP:  61; 6HR MAX TEMP:  73;

RUTHERFORDTON  CLOUDY    55  51  88 CALM      30.23S
6HR MIN TEMP:  55; 6HR MAX TEMP:  72;

ASHEVILLE      PTCLDY    54  49  83 CALM      30.25S
6HR MIN TEMP:  54; 6HR MAX TEMP:  68;


$$



USA.gov is the U.S. government's official web portal to all federal, state and local government web resources and services.